ISAT (43879 NORAD) Tracking and Keplerian Element Data

This shows tracking and keplerian element data for the satellite.

Feedback or suggestion? Click here.




ElementValue
Catalog43879
NameISAT
Epoch Orbit100
Epoch Day16.21392608
Epoch Year2019
RAAN286.367
Inclination97.7263
Eccentricity0.0013389
Argument of Perigee171.1411
Mean Anonmoly189.0049
Mean Motion14.95866915
Decay Rate4.27E-06
L11 43879U 18111D 19016.21392608 .00000427 00000-0 43364-4 0 9998
L22 43879 97.7263 286.3670 0013389 171.1411 189.0049 14.95866915 1005

Live tracking and technical data element details for ISAT (NORAD 43879). ISAT can be tracked NOW for your location showing map with azimuth and elevation plus other details from your city location.

Track the satellite on the map from your city or location and see movement details for azimuth, elevation, latitude, longitude, range, height, and movement on the map or in text.







IsCatalogInMostPopularTable: catalog: 43879, numindb: 16
Update: records affected: 1



GetName: 43879 ISAT

Hit Count: updated at: Thu, 17 Jan 2019 14:41:45 GMT